Погода в Ельце

Россия / Липецкая область     52°37′27″N   38°30′13″E
темп.,
°C
ветер,
м/с
пор.,
м/с
влажн.,
%
обл.,
%
осадки,
мм/ч
давл.,
гПа
погр.,
м
26 июля, пн
пн2600:00+18вюв225319 0.0 102214
03:00+18в0152100 0.0 102311
06:00+18ююв225446 0.0 102324
09:00+22ю114853 0.0 1023420
12:00+27ю233461 0.0 10232325
15:00+25зсз444188 0.0 10221086
18:00+25ссв224513 0.0 1022253
21:00+21юв225466 0.0 102216
27 июля, вт
вт2700:00+20ююз225484 0.0 102227
03:00+17ссв11654 0.0 102311
06:00+19зюз126334 0.0 102324
09:00+25зсз114648 0.0 1022509
12:00+28зсз33363 0.0 10212172
15:00+27з454277 0.0 1020785
18:00+27з554082 0.0 10191159
21:00+21с11596 0.3 101912
28 июля, ср
ср2800:00+19юз01695 0.1 101911
03:00+18юз22727 0.1 101917
06:00+19ююз22685 0.0 101822
09:00+26ююз34446 0.0 1017543
12:00+30ююз4431100 0.0 10162609
15:00+20ссз6965100 0.1 1016268
18:00+22вюв2261100 0.1 101476
21:00+21ю355788 0.1 1013105
29 июля, чт
чт2900:00+18ююз36799 0.4 1012106
03:00+18ююз398742 0.6 1011195
06:00+17юз36910 0.0 1010170
09:00+24з466432 0.0 1010697
12:00+29з684019 0.0 10092255
15:00+31зсз6832100 0.0 10082598
18:00+30сз463588 0.0 10071783
21:00+24ссв22547 0.0 100714
30 июля, пт
пт3000:00+20юз2280100 1.8 100827
03:00+18зсз229496 4.2 100848
06:00+19юз119291 3.4 100835
09:00+23юз117421 3.4 1008599
12:00+27з335545 0.1 10081493
15:00+29зсз4444100 0.3 10072036
18:00+26сз3656100 0.0 1008185
21:00+24сз496041 0.0 1009232